When you browse on this site, cookies collect data to enhance your experience and personalize the content and advertising you see.
Visit our Privacy Policy to learn more. By continuing to use the site, you agree to this use of cookies and data.
  • In Hungary
  • List of Countries
  • For 7 days
  • Water Temperature
  • Satellite Maps
  • Weather Map
  • News
  • Weather Widgets
  • user-avatar
    Login

    Hourly Weather Accettura

    Today, 20 July, Saturday

    Time Temperature Precipitation Wind Pressure Humidity
    00:00 +19°C° 0 mm 1 mps 692 mmHg 56%
    01:00 +19°C° 0 mm 1 mps 692 mmHg 57%
    02:00 +18°C° 0 mm 1 mps 692 mmHg 57%
    03:00 +18°C° 0 mm 1 mps 692 mmHg 58%
    04:00 +18°C° 0 mm 1 mps 692 mmHg 58%
    05:00 +19°C° 0 mm 1 mps 693 mmHg 54%
    06:00 +19°C° 0 mm 0 mps 693 mmHg 50%
    07:00 +21°C° 0 mm 0 mps 694 mmHg 46%
    08:00 +24°C° 0 mm 1 mps 694 mmHg 40%
    09:00 +26°C° 0 mm 1 mps 695 mmHg 35%
    10:00 +27°C° 0 mm 1 mps 696 mmHg 29%
    11:00 +28°C° 0 mm 2 mps 696 mmHg 27%
    12:00 +29°C° 0 mm 2 mps 696 mmHg 25%
    13:00 +30°C° 0 mm 2 mps 696 mmHg 23%
    14:00 +30°C° 0 mm 2 mps 696 mmHg 23%
    15:00 +30°C° 0 mm 3 mps 696 mmHg 24%
    16:00 +30°C° 0 mm 3 mps 696 mmHg 25%
    17:00 +28°C° 0 mm 2 mps 695 mmHg 31%
    18:00 +26°C° 0 mm 2 mps 695 mmHg 37%
    19:00 +24°C° 0 mm 2 mps 695 mmHg 43%
    20:00 +23°C° 0 mm 1 mps 694 mmHg 44%
    21:00 +22°C° 0 mm 1 mps 694 mmHg 44%
    22:00 +19°C° 0 mm 0 mps 694 mmHg 45%
    23:00 +20°C° 0 mm 1 mps 694 mmHg 44%

    Tomorrow, 21 July, Sunday

    Time Temperature Precipitation Wind Pressure Humidity
    00:00 +20°C° 0 mm 1 mps 694 mmHg 42%
    01:00 +20°C° 0 mm 1 mps 694 mmHg 41%
    02:00 +20°C° 0 mm 1 mps 694 mmHg 42%
    03:00 +20°C° 0 mm 1 mps 694 mmHg 43%
    04:00 +19°C° 0 mm 1 mps 694 mmHg 44%
    05:00 +21°C° 0 mm 1 mps 694 mmHg 42%
    06:00 +23°C° 0 mm 1 mps 695 mmHg 40%
    07:00 +25°C° 0 mm 1 mps 695 mmHg 38%
    08:00 +26°C° 0 mm 1 mps 696 mmHg 34%
    09:00 +28°C° 0 mm 1 mps 696 mmHg 31%
    10:00 +29°C° 0 mm 2 mps 697 mmHg 28%
    11:00 +30°C° 0 mm 2 mps 697 mmHg 26%
    12:00 +31°C° 0 mm 3 mps 697 mmHg 24%
    13:00 +33°C° 0 mm 3 mps 697 mmHg 22%
    14:00 +33°C° 0 mm 3 mps 697 mmHg 22%
    15:00 +33°C° 0 mm 4 mps 697 mmHg 22%
    16:00 +33°C° 0 mm 4 mps 697 mmHg 22%
    17:00 +30°C° 0 mm 3 mps 696 mmHg 26%
    18:00 +27°C° 0 mm 2 mps 696 mmHg 31%
    19:00 +25°C° 0 mm 1 mps 695 mmHg 35%
    20:00 +24°C° 0 mm 1 mps 695 mmHg 36%
    21:00 +23°C° 0 mm 1 mps 695 mmHg 37%
    22:00 +22°C° 0 mm 1 mps 695 mmHg 38%
    23:00 +21°C° 0 mm 1 mps 695 mmHg 39%

    Day after tomorrow, 22 July, Monday

    Time Temperature Precipitation Wind Pressure Humidity
    00:00 +21°C° 0 mm 1 mps 695 mmHg 39%
    01:00 +21°C° 0 mm 1 mps 694 mmHg 39%
    02:00 +21°C° 0 mm 1 mps 694 mmHg 41%
    03:00 +20°C° 0 mm 1 mps 694 mmHg 43%
    04:00 +20°C° 0 mm 1 mps 694 mmHg 45%
    05:00 +22°C° 0 mm 1 mps 695 mmHg 43%
    06:00 +24°C° 0 mm 1 mps 695 mmHg 41%
    07:00 +26°C° 0 mm 1 mps 695 mmHg 39%
    08:00 +27°C° 0 mm 2 mps 696 mmHg 35%
    09:00 +29°C° 0 mm 3 mps 696 mmHg 31%
    10:00 +30°C° 0 mm 3 mps 697 mmHg 27%
    11:00 +32°C° 0 mm 4 mps 697 mmHg 26%
    12:00 +33°C° 0 mm 4 mps 697 mmHg 24%
    13:00 +34°C° 0 mm 4 mps 697 mmHg 22%
    14:00 +34°C° 0 mm 4 mps 697 mmHg 23%
    15:00 +34°C° 0 mm 4 mps 696 mmHg 23%
    16:00 +34°C° 0 mm 4 mps 696 mmHg 23%
    17:00 +30°C° 0 mm 4 mps 696 mmHg 30%
    18:00 +28°C° 0 mm 3 mps 695 mmHg 37%
    19:00 +26°C° 0 mm 2 mps 695 mmHg 44%
    20:00 +25°C° 0 mm 2 mps 695 mmHg 47%
    21:00 +23°C° 0 mm 2 mps 694 mmHg 51%
    22:00 +21°C° 0 mm 2 mps 694 mmHg 54%
    23:00 +21°C° 0 mm 2 mps 694 mmHg 55%

    23 July, Tuesday

    Time Temperature Precipitation Wind Pressure Humidity
    00:00 +20°C° 0 mm 2 mps 693 mmHg 57%
    01:00 +20°C° 0 mm 2 mps 693 mmHg 58%
    02:00 +20°C° 0 mm 2 mps 693 mmHg 59%
    03:00 +20°C° 0 mm 2 mps 693 mmHg 59%
    04:00 +19°C° 0 mm 2 mps 692 mmHg 60%
    05:00 +21°C° 0 mm 2 mps 693 mmHg 56%
    06:00 +24°C° 0 mm 3 mps 693 mmHg 52%
    07:00 +25°C° 0 mm 3 mps 693 mmHg 47%
    08:00 +27°C° 0 mm 3 mps 694 mmHg 43%
    09:00 +28°C° 0 mm 4 mps 694 mmHg 39%
    10:00 +30°C° 0 mm 5 mps 695 mmHg 35%
    11:00 +32°C° 0 mm 5 mps 695 mmHg 32%
    12:00 +33°C° 0 mm 5 mps 695 mmHg 30%
    13:00 +33°C° 0 mm 5 mps 695 mmHg 27%
    14:00 +33°C° 0 mm 5 mps 694 mmHg 28%
    15:00 +33°C° 0 mm 5 mps 694 mmHg 29%
    16:00 +33°C° 0 mm 5 mps 694 mmHg 30%
    17:00 +30°C° 0 mm 4 mps 693 mmHg 35%
    18:00 +28°C° 0 mm 4 mps 693 mmHg 40%
    19:00 +26°C° 0 mm 3 mps 693 mmHg 45%
    20:00 +25°C° 0 mm 3 mps 692 mmHg 48%
    21:00 +23°C° 0 mm 2 mps 692 mmHg 51%
    22:00 +21°C° 0 mm 2 mps 692 mmHg 53%
    23:00 +21°C° 0 mm 2 mps 692 mmHg 55%

    24 July, Wednesday

    Time Temperature Precipitation Wind Pressure Humidity
    00:00 +20°C° 0 mm 2 mps 692 mmHg 56%
    01:00 +20°C° 0 mm 2 mps 691 mmHg 57%
    02:00 +19°C° 0 mm 2 mps 691 mmHg 58%
    03:00 +19°C° 0 mm 2 mps 691 mmHg 60%
    04:00 +19°C° 0 mm 2 mps 691 mmHg 61%
    05:00 +20°C° 0 mm 3 mps 691 mmHg 60%
    06:00 +21°C° 0 mm 3 mps 692 mmHg 58%
    07:00 +24°C° 0 mm 3 mps 692 mmHg 57%
    08:00 +25°C° 0 mm 4 mps 692 mmHg 52%
    09:00 +27°C° 0 mm 5 mps 693 mmHg 46%
    10:00 +28°C° 0 mm 6 mps 693 mmHg 41%
    11:00 +29°C° 0 mm 6 mps 693 mmHg 37%
    12:00 +30°C° 0 mm 6 mps 694 mmHg 34%
    13:00 +32°C° 0 mm 6 mps 694 mmHg 31%
    14:00 +30°C° 0 mm 6 mps 694 mmHg 32%
    15:00 +30°C° 0 mm 6 mps 693 mmHg 33%
    16:00 +29°C° 0 mm 6 mps 693 mmHg 34%
    17:00 +27°C° 0 mm 5 mps 693 mmHg 37%
    18:00 +26°C° 0 mm 4 mps 692 mmHg 41%
    19:00 +24°C° 0 mm 3 mps 692 mmHg 44%
    20:00 +21°C° 0 mm 2 mps 692 mmHg 49%
    21:00 +20°C° 0 mm 2 mps 692 mmHg 53%
    22:00 +18°C° 0 mm 2 mps 692 mmHg 57%
    23:00 +18°C° 0 mm 2 mps 692 mmHg 59%

    25 July, Thursday

    Time Temperature Precipitation Wind Pressure Humidity
    00:00 +17°C° 0 mm 2 mps 692 mmHg 60%
    01:00 +17°C° 0 mm 2 mps 692 mmHg 61%
    02:00 +17°C° 0 mm 2 mps 691 mmHg 60%
    03:00 +17°C° 0 mm 2 mps 691 mmHg 59%
    04:00 +17°C° 0 mm 2 mps 691 mmHg 57%
    05:00 +19°C° 0 mm 1 mps 692 mmHg 52%
    06:00 +21°C° 0 mm 1 mps 692 mmHg 47%
    07:00 +23°C° 0 mm 1 mps 693 mmHg 41%
    08:00 +25°C° 0 mm 2 mps 693 mmHg 39%
    09:00 +26°C° 0 mm 2 mps 694 mmHg 36%
    10:00 +28°C° 0 mm 3 mps 694 mmHg 33%
    11:00 +29°C° 0 mm 3 mps 695 mmHg 31%
    12:00 +30°C° 0 mm 3 mps 695 mmHg 30%
    13:00 +31°C° 0 mm 3 mps 695 mmHg 28%
    14:00 +31°C° 0 mm 3 mps 695 mmHg 30%
    15:00 +32°C° 0 mm 4 mps 694 mmHg 31%
    16:00 +32°C° 0 mm 4 mps 694 mmHg 32%
    17:00 +29°C° 0 mm 4 mps 694 mmHg 37%
    18:00 +27°C° 0 mm 3 mps 693 mmHg 43%
    19:00 +25°C° 0 mm 2 mps 693 mmHg 48%
    20:00 +24°C° 0 mm 1 mps 693 mmHg 52%
    21:00 +22°C° 0 mm 1 mps 693 mmHg 56%
    22:00 +19°C° 0 mm 0 mps 692 mmHg 61%
    23:00 +19°C° 0 mm 0 mps 692 mmHg 61%
    Show more